Wind_Speed
18 18 18 18 18 18 18 18 19 18 18 17 17 16 16 17 17 17 18 17 17 17 17 17 17 17 17 18 19 18 18 18 18 18 18 18 18 18 18 18 19 19 19
19 19 19 19 19 19 19 19 19 19 19 19 19 18 18 18 19 18 18 18 18 18 17 18 18 18 18 19 19 19 19 19 19 19 19 19 20 20 20 20 20 20 21
20 20 20 20 20 19 20 20 19 19 19 20 20 19 19 19 20 20 20 19 19 19 19 18 19 20 20 20 20 21 21 21 21 21 21 21 21 21 22 22 22 21 21
20 20 20 20 20 20 20 20 20 20 20 19 19 19 20 20 21 21 21 20 20 20 20 20 20 21 21 21 21 22 22 23 23 23 23 23 23 23 23 23 23 23 23
20 20 20 20 21 21 21 21 21 21 22 21 21 20 20 20 21 22 22 22 22 22 21 21 22 22 21 22 22 23 23 23 23 24 24 24 24 24 24 24 24 24 24
21 21 20 20 21 21 21 21 21 21 21 21 21 22 22 22 21 22 22 23 23 23 22 22 23 23 22 22 22 23 23 24 24 24 24 25 25 25 25 25 25 25 24
21 21 21 21 21 21 21 21 21 21 21 21 21 22 22 23 23 22 22 23 23 24 24 24 24 25 24 24 23 23 23 24 25 25 25 25 25 25 25 24 24 25 24
21 20 20 20 21 21 21 21 21 21 21 21 21 22 22 23 23 23 23 24 24 24 25 25 25 26 25 25 25 24 24 24 24 24 24 24 24 24 24 24 23 24 24
21 20 20 20 19 19 20 20 20 21 20 21 21 22 22 23 23 24 25 24 24 24 25 25 26 26 27 27 26 26 25 25 25 24 24 24 25 24 24 24 24 24 24
21 21 20 19 19 19 19 20 20 21 21 20 21 22 22 23 24 25 25 24 24 24 25 25 26 27 26 26 26 26 26 26 26 26 25 25 25 25 24 24 24 24 24
22 21 20 20 20 20 20 21 21 21 21 21 21 22 22 22 23 24 24 24 24 24 24 25 26 27 27 27 27 26 26 27 27 27 27 27 26 25 25 25 25 26 25
22 20 20 20 20 19 20 20 20 21 21 21 21 21 21 21 22 23 24 23 23 23 24 25 26 27 27 27 27 27 27 28 28 29 29 29 27 26 26 27 26 26 26
21 20 20 20 20 19 19 19 19 19 20 21 21 21 21 22 22 23 24 24 24 24 24 25 25 26 27 28 29 28 28 28 28 29 30 30 29 28 28 28 27 27 27
20 20 20 20 20 19 19 19 19 19 20 20 21 21 21 22 23 23 24 25 25 25 25 26 26 27 28 28 28 28 28 29 29 29 29 29 29 30 29 29 29 28 28
20 19 19 19 19 19 18 19 19 19 20 20 21 21 21 22 23 23 24 25 26 26 27 27 27 27 27 28 28 28 29 29 30 30 30 29 29 29 29 29 29 29 29
20 20 19 19 19 19 19 19 19 19 20 20 21 22 22 22 23 24 25 26 26 26 26 26 26 26 27 27 28 28 28 29 29 30 31 30 30 30 30 29 30 30 30
20 19 19 19 19 19 19 19 19 19 20 20 21 22 22 23 23 24 24 25 26 26 26 26 27 27 27 26 27 27 28 28 29 29 31 31 31 31 30 30 31 31 31
20 19 19 19 19 19 18 18 19 19 19 20 21 22 22 23 23 23 24 25 25 25 25 26 26 26 26 26 27 27 28 28 28 29 29 29 29 29 29 29 30 30 30
20 19 19 18 18 17 17 18 19 19 19 19 20 21 21 21 22 23 24 24 24 24 24 25 25 25 26 26 26 27 27 27 27 28 28 28 28 28 28 28 29 29 30
20 19 18 18 18 18 18 18 19 19 19 19 19 19 19 20 21 21 22 22 22 23 24 24 25 25 25 26 26 27 27 27 27 27 27 27 28 28 28 28 28 29 29
20 20 19 19 18 18 18 19 19 20 20 20 20 19 19 19 20 21 21 21 21 22 22 22 23 24 24 25 25 25 27 27 27 26 26 26 27 27 27 28 29 29 29
21 20 21 20 20 20 20 20 20 20 20 20 20 20 20 20 21 21 21 20 21 21 21 21 22 24 24 24 24 24 25 25 25 26 26 26 27 27 28 28 29 29 29
21 21 21 21 21 21 21 21 21 21 20 20 20 21 22 21 21 21 21 21 21 20 20 21 22 23 23 24 24 25 25 25 25 25 26 26 27 27 28 28 28 28 28
21 21 22 22 22 21 21 21 21 21 21 20 21 21 22 21 21 21 21 22 21 21 21 21 22 22 23 23 23 24 25 25 25 26 26 27 27 27 28 28 28 28 28
22 22 22 22 21 21 21 21 21 21 21 21 21 21 22 21 21 21 21 21 21 21 21 21 22 22 22 22 23 23 23 24 25 25 26 26 27 27 27 27 28 28 28
22 22 22 21 21 21 21 20 20 20 20 21 22 22 22 22 21 21 21 21 21 21 21 21 22 22 22 23 23 24 24 25 26 26 25 25 26 26 27 27 27 27 27
Wind_Direction
284 279 278 278 276 277 277 277 276 275 275 275 272 269 267 265 263 260 260 261 260 261 260 258 258 259 259 258 256 256 257 258 259 261 263 265 265 263 263 263 263 263 262
286 282 279 277 274 275 275 274 275 275 273 273 270 266 265 265 262 259 259 261 260 260 259 258 260 261 261 261 260 260 260 261 261 261 264 265 265 263 263 264 264 265 264
289 285 280 276 274 274 274 274 275 276 273 271 269 266 265 264 262 259 259 261 260 260 259 260 261 263 263 263 263 264 264 263 263 262 262 264 267 265 262 263 264 265 265
289 288 281 276 276 275 273 272 272 273 271 271 271 270 267 265 262 259 259 260 260 260 262 263 264 265 266 265 264 264 266 265 264 263 263 265 266 266 264 264 264 264 266
289 287 282 278 276 275 274 273 272 272 270 269 270 271 270 267 265 263 260 259 260 261 263 264 266 266 266 267 266 266 266 267 266 264 265 266 265 266 265 264 265 266 267
287 286 280 277 275 275 273 274 273 272 269 269 270 270 270 269 267 264 263 260 259 260 262 265 268 267 265 267 268 266 266 267 268 269 267 266 266 266 265 265 265 265 266
288 286 281 279 276 273 272 272 272 271 269 268 269 269 269 268 268 266 264 261 259 261 263 266 266 266 267 267 269 267 266 268 268 270 268 265 266 266 266 267 267 266 266
288 287 283 281 278 275 274 272 271 272 270 268 267 267 267 267 267 266 264 262 261 261 264 266 267 266 267 269 270 269 267 267 268 269 267 266 267 267 266 266 268 268 267
284 284 284 282 280 278 276 274 272 271 271 270 267 267 267 265 266 267 266 265 264 264 265 267 267 267 267 270 271 270 269 269 268 267 267 265 265 266 266 266 267 269 270
283 283 283 284 281 277 277 276 273 271 271 270 270 270 270 269 267 268 267 265 265 265 266 267 268 268 270 271 272 271 269 269 267 265 264 264 266 267 266 266 268 270 271
282 282 282 283 281 278 278 277 275 272 270 271 272 271 270 269 268 267 267 267 266 266 266 267 268 269 270 271 271 270 270 269 267 267 266 265 267 267 266 266 268 270 270
282 281 282 283 282 281 281 279 277 273 271 271 272 271 269 268 267 265 265 267 268 267 269 271 270 269 270 271 272 270 269 269 267 267 266 265 266 267 266 268 270 270 269
283 282 282 283 282 280 279 279 279 275 270 270 271 272 272 270 269 269 269 270 271 271 271 273 273 272 271 271 272 270 269 270 269 267 265 265 266 265 266 267 268 267 268
281 282 282 282 282 280 279 280 279 277 273 272 272 273 273 271 271 272 272 272 272 272 272 272 274 274 272 272 270 270 270 270 269 268 265 265 266 266 266 267 267 268 269
278 280 281 282 282 282 281 280 279 278 275 273 274 274 274 272 271 272 273 272 273 273 273 273 274 273 271 270 270 271 273 273 271 269 266 266 266 265 266 267 267 268 269
276 278 279 280 281 281 281 281 281 280 279 276 275 275 275 275 273 274 274 273 274 275 274 274 273 273 272 271 271 271 272 272 273 271 269 268 265 265 266 265 266 267 267
277 278 279 281 280 280 280 282 283 282 280 278 277 276 275 275 276 276 275 275 276 276 275 275 274 275 274 274 274 274 273 273 274 273 270 269 267 266 267 267 266 266 266
278 278 278 280 281 280 280 282 284 283 281 280 280 279 277 277 278 278 277 277 278 276 275 275 275 274 274 274 275 276 275 274 273 273 271 269 268 268 268 269 268 266 266
276 275 275 277 279 281 282 284 286 287 285 282 282 281 280 279 280 280 279 278 277 276 276 276 275 274 273 274 274 275 276 275 274 274 272 269 268 268 269 270 270 269 268
275 275 275 276 278 279 282 286 287 287 287 287 285 283 282 283 284 284 283 281 279 278 278 278 277 276 274 274 275 275 276 276 276 275 273 271 269 269 269 269 270 270 269
273 273 274 275 276 279 283 285 288 288 287 286 286 285 283 285 286 286 286 285 285 283 280 280 279 278 276 277 276 275 276 275 275 274 273 271 271 270 269 269 269 269 270
273 273 273 273 274 278 283 285 287 289 289 287 284 281 281 285 287 287 287 288 289 287 283 281 282 280 277 277 277 279 279 278 274 273 272 272 271 270 269 269 269 269 270
270 271 273 275 276 279 282 284 285 288 288 287 285 284 284 285 287 289 289 291 291 290 289 288 287 285 281 281 280 280 280 279 276 274 273 272 271 270 269 270 270 270 270
273 274 274 276 278 279 280 281 282 285 287 287 287 288 286 285 287 287 288 290 290 290 292 290 288 286 285 285 285 283 281 280 277 276 275 274 273 272 271 271 270 270 269
277 277 277 277 277 277 278 279 281 284 286 287 288 289 288 286 286 286 287 289 289 289 290 291 290 288 288 289 289 287 284 283 281 279 278 275 274 273 272 271 270 269 269
279 278 278 277 275 276 277 278 280 283 285 287 288 289 288 286 285 286 286 288 289 289 289 290 292 292 291 292 292 291 289 287 284 281 280 278 276 275 273 271 270 269 269
Height
5817 5816 5816 5816 5816 5815 5815 5815 5815 5814 5814 5814 5815 5815 5815 5816 5816 5817 5818 5819 5820 5821 5822 5823 5823 5824 5825 5826 5827 5827 5828 5829 5830 5830 5830 5830 5830 5831 5831 5831 5831 5832 5832
5812 5811 5810 5810 5810 5810 5810 5810 5810 5809 5809 5810 5810 5810 5810 5811 5811 5812 5813 5814 5815 5816 5817 5818 5819 5820 5820 5821 5822 5822 5823 5824 5824 5825 5825 5825 5825 5825 5826 5826 5826 5826 5826
5805 5804 5804 5804 5804 5804 5805 5804 5805 5804 5804 5804 5804 5805 5805 5806 5806 5807 5808 5809 5810 5811 5812 5813 5814 5815 5815 5816 5817 5817 5817 5818 5819 5819 5819 5819 5819 5819 5820 5820 5820 5820 5820
5800 5799 5798 5798 5799 5799 5799 5799 5799 5799 5799 5799 5799 5799 5800 5800 5800 5801 5803 5804 5805 5806 5807 5808 5808 5809 5809 5810 5810 5811 5811 5812 5812 5813 5813 5813 5813 5813 5813 5814 5814 5814 5814
5795 5794 5793 5793 5793 5793 5793 5793 5793 5793 5793 5793 5793 5794 5794 5794 5795 5795 5797 5798 5799 5800 5801 5802 5802 5803 5803 5804 5804 5805 5805 5805 5806 5806 5807 5807 5807 5807 5807 5807 5807 5807 5808
5789 5788 5787 5787 5787 5787 5787 5787 5787 5787 5787 5787 5788 5788 5788 5788 5789 5789 5790 5791 5793 5794 5794 5795 5796 5796 5797 5797 5798 5798 5799 5799 5799 5800 5800 5800 5800 5800 5800 5800 5801 5801 5802
5783 5782 5781 5781 5780 5780 5780 5781 5781 5781 5781 5781 5781 5782 5782 5782 5783 5783 5784 5785 5786 5787 5788 5789 5789 5790 5791 5791 5791 5792 5792 5792 5793 5793 5793 5793 5793 5793 5793 5794 5794 5794 5794
5777 5776 5775 5774 5774 5774 5774 5774 5774 5775 5775 5775 5775 5775 5775 5776 5777 5777 5777 5778 5779 5780 5781 5782 5783 5783 5784 5784 5785 5785 5785 5785 5785 5785 5786 5786 5786 5786 5786 5787 5787 5787 5787
5772 5771 5769 5768 5768 5768 5768 5768 5768 5768 5768 5769 5769 5769 5769 5769 5770 5770 5771 5772 5773 5774 5774 5775 5775 5776 5776 5777 5777 5778 5778 5778 5778 5778 5778 5779 5779 5779 5779 5780 5780 5780 5780
5766 5765 5764 5763 5762 5762 5762 5761 5761 5762 5762 5762 5763 5762 5762 5762 5763 5763 5764 5765 5766 5767 5767 5768 5768 5769 5769 5769 5769 5770 5770 5770 5770 5771 5771 5771 5771 5772 5772 5772 5772 5772 5772
5760 5759 5758 5757 5757 5756 5756 5755 5755 5755 5755 5756 5756 5756 5756 5756 5756 5757 5757 5758 5759 5759 5760 5761 5761 5761 5762 5762 5762 5762 5762 5762 5763 5763 5763 5764 5764 5764 5764 5764 5765 5765 5765
5754 5753 5752 5752 5751 5750 5749 5749 5748 5748 5749 5749 5750 5750 5750 5750 5750 5750 5751 5752 5752 5753 5753 5753 5753 5754 5754 5754 5754 5754 5754 5754 5754 5755 5755 5755 5756 5756 5756 5756 5757 5757 5757
5748 5748 5747 5746 5745 5744 5743 5743 5742 5742 5743 5743 5743 5744 5744 5744 5744 5744 5745 5745 5745 5745 5746 5746 5745 5745 5746 5746 5746 5746 5746 5746 5746 5746 5746 5747 5747 5748 5748 5748 5748 5748 5748
5743 5742 5741 5740 5739 5738 5737 5737 5737 5736 5737 5737 5737 5737 5737 5737 5737 5738 5737 5738 5738 5738 5738 5738 5737 5737 5737 5737 5737 5737 5737 5737 5737 5737 5738 5738 5738 5739 5739 5739 5740 5740 5740
5737 5736 5736 5735 5734 5733 5732 5731 5731 5731 5730 5731 5731 5731 5731 5731 5731 5730 5730 5730 5730 5730 5730 5730 5729 5729 5729 5729 5729 5729 5728 5728 5728 5729 5729 5729 5729 5730 5730 5730 5731 5731 5731
5731 5730 5730 5729 5728 5727 5727 5726 5725 5725 5724 5724 5724 5724 5724 5724 5723 5723 5723 5722 5722 5722 5721 5721 5720 5720 5720 5720 5720 5720 5720 5719 5719 5719 5719 5720 5720 5720 5721 5721 5721 5722 5722
5725 5725 5724 5724 5723 5722 5721 5720 5719 5719 5718 5718 5717 5717 5717 5716 5716 5715 5715 5714 5714 5713 5713 5712 5712 5712 5712 5711 5711 5711 5711 5710 5710 5710 5710 5710 5710 5711 5711 5711 5712 5712 5713
5719 5719 5719 5718 5717 5716 5716 5715 5714 5713 5712 5711 5711 5710 5709 5709 5708 5708 5707 5706 5706 5705 5704 5704 5703 5703 5703 5703 5702 5702 5702 5701 5701 5701 5701 5701 5701 5701 5701 5702 5702 5702 5703
5713 5713 5713 5712 5712 5711 5710 5709 5708 5707 5706 5705 5704 5703 5702 5701 5701 5700 5699 5698 5698 5697 5696 5696 5695 5695 5695 5694 5694 5693 5693 5693 5692 5692 5692 5691 5691 5692 5692 5692 5693 5693 5693
5707 5707 5707 5706 5706 5705 5704 5703 5702 5701 5700 5699 5698 5697 5696 5695 5694 5693 5692 5691 5690 5689 5688 5688 5687 5686 5686 5686 5685 5685 5684 5684 5684 5683 5683 5682 5682 5682 5683 5683 5683 5684 5684
5700 5700 5700 5700 5700 5699 5698 5697 5696 5695 5694 5693 5691 5691 5690 5688 5687 5686 5685 5684 5683 5682 5681 5680 5679 5678 5678 5677 5676 5676 5676 5675 5675 5674 5674 5674 5673 5673 5673 5673 5674 5674 5674
5694 5694 5694 5693 5693 5693 5692 5691 5690 5689 5687 5686 5685 5684 5683 5682 5681 5680 5678 5677 5676 5674 5673 5673 5671 5670 5670 5669 5668 5668 5667 5666 5666 5665 5665 5665 5664 5664 5664 5664 5664 5664 5664
5687 5687 5687 5686 5686 5686 5685 5684 5683 5682 5681 5679 5678 5677 5676 5675 5674 5673 5672 5671 5669 5668 5667 5666 5664 5663 5662 5661 5660 5659 5659 5658 5657 5657 5656 5656 5655 5655 5655 5655 5654 5655 5655
5680 5680 5679 5679 5679 5678 5678 5677 5676 5675 5674 5673 5672 5671 5669 5668 5667 5666 5665 5664 5663 5662 5660 5659 5658 5656 5655 5654 5652 5651 5650 5650 5649 5648 5648 5647 5647 5646 5646 5645 5645 5645 5645
5673 5672 5671 5671 5671 5671 5671 5670 5669 5668 5668 5666 5665 5664 5663 5662 5661 5660 5659 5658 5657 5655 5654 5652 5651 5649 5648 5647 5645 5644 5642 5641 5640 5639 5638 5638 5637 5637 5636 5636 5636 5636 5636
5665 5665 5664 5664 5664 5664 5664 5663 5663 5662 5661 5660 5659 5658 5656 5655 5654 5653 5652 5651 5650 5649 5647 5646 5644 5643 5641 5639 5638 5636 5635 5633 5632 5631 5629 5628 5628 5627 5627 5627 5627 5627 5627